Regional Weather Roundup
Issued by NWS

Home | Current Version | Previous Version | Text Only | Print | Product List | Glossary Off
Versions: 1 2 3 4 5 6 7 8 9 10 11 12 13 14 15 16 17 18 19 20 21 22 23 24 25 26 27 28 29 30 31 32 33 34 35 36 37 38 39 40 41 42 43 44 45 46 47 48 49 50

000
ASUS43 KOAX 210002
RWRNE

WEATHER ROUNDUP FOR NEBRASKA
NATIONAL WEATHER SERVICE OMAHA NE
700 PM CDT MON OCT 20 2014

NOTES: SATELLITE DATA IS BEING USED TO AUGMENT CLOUD COVER ABOVE
       12000 FEET.
       "FAIR" INDICATES FEW OR NO CLOUDS BELOW 12,000 FEET WITH NO
       SIGNIFICANT WEATHER AND/OR OBSTRUCTIONS TO VISIBILITY.

  * THESE STATIONS DO NOT REPORT WEATHER SUCH AS RAIN...SNOW OR FOG.

NEZ001>004-019>022-054>056-210100-
NEBRASKA PANHANDLE

CITY           SKY/WX    TMP DP  RH WIND       PRES   REMARKS
SCOTTSBLUFF    CLEAR     70  41  34 SE7       29.98F
6HR MIN TEMP:  70; 6HR MAX TEMP:  81;

ALLIANCE       CLEAR     62  40  44 S10       30.00F
6HR MIN TEMP:  62; 6HR MAX TEMP:  77;

CHADRON        CLEAR     72  43  35 S16       29.92F
6HR MIN TEMP:  72; 6HR MAX TEMP:  80;

KIMBALL        CLEAR     67  36  32 S7        30.04S
SIDNEY         CLEAR     66  36  32 S12       30.05S
6HR MIN TEMP:  66; 6HR MAX TEMP:  77;

$$

NEZ057>060-069>072-079>082-210100-
SOUTHWEST NEBRASKA

CITY           SKY/WX    TMP DP  RH WIND       PRES   REMARKS
NORTH PLATTE   CLEAR     64  40  41 SE6       30.04S
6HR MIN TEMP:  64; 6HR MAX TEMP:  78;

IMPERIAL       CLEAR     69  38  32 S10       30.06R
6HR MIN TEMP:  69; 6HR MAX TEMP:  77;

LEXINGTON      CLEAR     68  41  37 S6        30.06R
MCCOOK         CLEAR     70  40  33 SE6       30.06S
6HR MIN TEMP:  70; 6HR MAX TEMP:  79;

OGALLALA       CLEAR     70  42  35 S6        30.04S
$$

NEZ005>010-023>029-035>040-094-210100-
NORTH CENTRAL NEBRASKA

CITY           SKY/WX    TMP DP  RH WIND       PRES   REMARKS
VALENTINE      CLEAR     68  38  33 SE9       29.99F
6HR MIN TEMP:  68; 6HR MAX TEMP:  79;

AINSWORTH      CLEAR     65  40  40 SE7       30.02S
BROKEN BOW     CLEAR     66  44  45 SE6       30.05S
6HR MIN TEMP:  66; 6HR MAX TEMP:  76;

O`NEILL        CLEAR     63  43  47 SE6       30.04S
ORD            CLEAR     63  42  46 SE3       30.03F
6HR MIN TEMP:  63; 6HR MAX TEMP:  74;

THEDFORD       CLEAR     70  41  34 S8        30.04S
$$

NEZ041-046>049-061>064-073>077-083>087-210100-
SOUTH CENTRAL NEBRASKA

CITY           SKY/WX    TMP DP  RH WIND       PRES   REMARKS
GRAND ISLAND   CLEAR     62  45  53 CALM      30.06S
6HR MIN TEMP:  62; 6HR MAX TEMP:  76;

AURORA         CLEAR     64  37  35 CALM      30.06S
HASTINGS       CLEAR     66  41  40 CALM      30.06S
6HR MIN TEMP:  65; 6HR MAX TEMP:  74;

HEBRON         CLEAR     61  42  49 CALM      30.05S
HOLDREGE       CLEAR     68  39  34 CALM      30.06S
KEARNEY *      CLEAR     64  41  42 E6        30.07S
YORK           CLEAR     66  39  37 MISG      30.06S
$$

NEZ011>018-030>034-042>045-210100-
NORTHEAST NEBRASKA

CITY           SKY/WX    TMP DP  RH WIND       PRES   REMARKS
NORFOLK        CLEAR     59  37  44 SE5       30.04S
6HR MIN TEMP:  59; 6HR MAX TEMP:  73;

ALBION         CLEAR     61  38  42 CALM      30.05S
BLAIR          CLEAR     65  37  35 CALM      30.05S
COLUMBUS *     CLEAR     61  34  36 CALM      30.06S
FREMONT        CLEAR     61  40  46 CALM      30.05S
TEKAMAH        CLEAR     61  40  45 NE7       30.04S
6HR MIN TEMP:  61; 6HR MAX TEMP:  75;

WAYNE          CLEAR     55  37  50 CALM      30.05S
$$

NEZ050>053-065>068-078-088>093-210100-
SOUTHEAST NEBRASKA

CITY           SKY/WX    TMP DP  RH WIND       PRES   REMARKS
LINCOLN        CLEAR     58  38  47 NE5       30.05S
6HR MIN TEMP:  58; 6HR MAX TEMP:  75;

OMAHA EPPLEY   CLEAR     66  40  38 CALM      30.04S
6HR MIN TEMP:  66; 6HR MAX TEMP:  73;

BEATRICE       CLEAR     62  38  40 CALM      30.05S HAZE
FALLS CITY     CLEAR     65  36  34 CALM      30.04R
6HR MIN TEMP:  65; 6HR MAX TEMP:  75;

NEBRASKA CITY  CLEAR     62  31  31 CALM      30.05S
PLATTSMOUTH    CLEAR     64  34  33 CALM      30.05S
$$

NEZ044-045-051>053-067-210100-
OMAHA AREA

CITY           SKY/WX    TMP DP  RH WIND       PRES   REMARKS
OMAHA EPPLEY   CLEAR     66  40  38 CALM      30.04S
6HR MIN TEMP:  66; 6HR MAX TEMP:  73;

BLAIR          CLEAR     65  37  35 CALM      30.05S
FREMONT        CLEAR     61  40  46 CALM      30.05S
MILLARD        CLEAR     60  45  58 CALM      30.04S
OFFUTT AFB     CLEAR     55  49  82 W1        30.04S
PLATTSMOUTH    CLEAR     64  34  33 CALM      30.05S
WAHOO          FAIR      63  33  32 CALM      30.05S
$$



USA.gov is the U.S. government's official web portal to all federal, state and local government web resources and services.